Time,TemperatureF,DewpointF,PressureIn,WindDirection,WindDirectionDegrees,WindSpeedMPH,WindSpeedGustMPH,Humidity,HourlyPrecipIn,Conditions,Clouds,dailyrainin,SoftwareType,DateUTC
2013-02-24 00:00:00,36.7,32.0,29.93,ESE,122,0.0,0.0,83,0.03,,-RA,0.06,VWS V14.01,2013-02-24 05:00:00,
2013-02-24 00:03:00,36.7,32.0,29.93,SSE,148,0.0,0.0,83,0.03,,-RA,0.00,VWS V14.01,2013-02-24 05:03:00,
2013-02-24 00:08:00,36.7,32.0,29.93,East,88,0.0,1.0,83,0.02,,-RA,0.00,VWS V14.01,2013-02-24 05:08:00,
2013-02-24 00:13:00,36.7,32.0,29.93,SSE,160,0.0,1.0,83,0.03,,-RA,0.01,VWS V14.01,2013-02-24 05:13:00,
2013-02-24 00:18:00,36.8,31.8,29.93,ENE,70,1.0,3.0,82,0.03,,-RA,0.01,VWS V14.01,2013-02-24 05:18:00,
2013-02-24 00:23:00,36.8,31.8,29.92,ENE,67,1.0,2.0,82,0.03,,-RA,0.01,VWS V14.01,2013-02-24 05:23:00,
2013-02-24 00:28:00,36.8,31.8,29.93,East,81,3.0,3.0,82,0.02,,-RA,0.01,VWS V14.01,2013-02-24 05:28:00,
2013-02-24 00:33:00,36.7,31.4,29.93,NE,53,0.0,1.0,81,0.02,,-RA,0.01,VWS V14.01,2013-02-24 05:33:00,
2013-02-24 00:38:00,36.8,31.5,29.92,SE,128,2.0,2.0,81,0.02,,-RA,0.01,VWS V14.01,2013-02-24 05:38:00,
2013-02-24 00:43:00,36.8,31.5,29.92,ENE,72,2.0,3.0,81,0.01,,-RA,0.01,VWS V14.01,2013-02-24 05:43:00,
2013-02-24 00:48:00,36.9,31.6,29.91,East,93,3.0,3.0,81,0.01,,-RA,0.01,VWS V14.01,2013-02-24 05:48:00,
2013-02-24 00:53:00,36.9,31.6,29.91,East,90,1.0,4.0,81,0.01,,-RA,0.01,VWS V14.01,2013-02-24 05:53:00,
2013-02-24 00:58:00,36.9,31.6,29.91,East,84,1.0,3.0,81,0.01,,-RA,0.01,VWS V14.01,2013-02-24 05:58:00,
2013-02-24 01:03:00,36.9,31.6,29.91,East,95,1.0,2.0,81,0.01,,-RA,0.01,VWS V14.01,2013-02-24 06:03:00,
2013-02-24 01:08:00,36.9,31.6,29.91,ENE,64,2.0,2.0,81,0.01,,-RA,0.01,VWS V14.01,2013-02-24 06:08:00,
2013-02-24 01:13:00,36.9,31.6,29.90,SE,139,1.0,1.0,81,0.00,,-RA,0.01,VWS V14.01,2013-02-24 06:13:00,
2013-02-24 01:18:00,37.0,31.7,29.90,ENE,72,3.0,3.0,81,0.00,,-RA,0.01,VWS V14.01,2013-02-24 06:18:00,
2013-02-24 01:23:00,37.0,32.0,29.90,SE,129,1.0,4.0,82,0.01,,-RA,0.02,VWS V14.01,2013-02-24 06:23:00,
2013-02-24 01:28:00,37.0,32.3,29.90,ENE,63,2.0,3.0,83,0.01,,-RA,0.02,VWS V14.01,2013-02-24 06:28:00,
2013-02-24 01:33:00,37.0,32.3,29.90,ENE,63,2.0,3.0,83,0.01,,,0.02,VWS V14.01,2013-02-24 06:33:00,
2013-02-24 01:38:00,37.0,32.3,29.89,ENE,70,1.0,3.0,83,0.01,,,0.02,VWS V14.01,2013-02-24 06:38:00,
2013-02-24 01:43:00,37.0,32.3,29.89,ENE,74,2.0,4.0,83,0.01,,,0.02,VWS V14.01,2013-02-24 06:43:00,
2013-02-24 01:48:00,37.1,32.4,29.89,East,86,2.0,3.0,83,0.01,,,0.02,VWS V14.01,2013-02-24 06:48:00,
2013-02-24 01:53:00,37.1,32.4,29.89,East,88,2.0,3.0,83,0.01,,,0.02,VWS V14.01,2013-02-24 06:53:00,
2013-02-24 01:58:00,37.1,32.7,29.89,East,81,3.0,6.0,84,0.01,,,0.02,VWS V14.01,2013-02-24 06:58:00,
2013-02-24 02:03:00,37.0,32.6,29.89,ESE,103,3.0,5.0,84,0.01,,,0.02,VWS V14.01,2013-02-24 07:03:00,
2013-02-24 02:08:00,37.1,32.7,29.88,SE,132,4.0,5.0,84,0.01,,,0.02,VWS V14.01,2013-02-24 07:08:00,
2013-02-24 02:13:00,37.1,32.7,29.88,East,86,5.0,5.0,84,0.01,,,0.02,VWS V14.01,2013-02-24 07:13:00,
2013-02-24 02:18:00,37.0,32.6,29.87,ENE,75,3.0,5.0,84,0.01,,,0.02,VWS V14.01,2013-02-24 07:18:00,
2013-02-24 02:23:00,37.0,32.6,29.87,East,93,4.0,7.0,84,0.00,,,0.02,VWS V14.01,2013-02-24 07:23:00,
2013-02-24 02:28:00,37.0,32.6,29.87,East,89,5.0,7.0,84,0.01,,,0.03,VWS V14.01,2013-02-24 07:28:00,
2013-02-24 02:33:00,37.0,32.6,29.87,East,79,3.0,7.0,84,0.01,,,0.03,VWS V14.01,2013-02-24 07:33:00,
2013-02-24 02:38:00,37.0,32.6,29.86,ENE,68,4.0,8.0,84,0.01,,,0.03,VWS V14.01,2013-02-24 07:38:00,
2013-02-24 02:43:00,37.1,32.7,29.86,ESE,117,6.0,7.0,84,0.01,,,0.03,VWS V14.01,2013-02-24 07:43:00,
2013-02-24 02:48:00,37.0,32.6,29.86,ENE,72,3.0,4.0,84,0.01,,,0.03,VWS V14.01,2013-02-24 07:48:00,
2013-02-24 02:53:00,37.1,32.7,29.85,ENE,72,3.0,8.0,84,0.01,,,0.03,VWS V14.01,2013-02-24 07:53:00,
2013-02-24 02:58:00,37.0,32.6,29.85,East,101,3.0,6.0,84,0.02,,,0.04,VWS V14.01,2013-02-24 07:58:00,
2013-02-24 03:03:00,37.0,32.6,29.85,East,89,4.0,7.0,84,0.02,,,0.04,VWS V14.01,2013-02-24 08:03:00,
2013-02-24 03:08:00,37.0,32.6,29.85,ENE,70,8.0,8.0,84,0.02,,,0.04,VWS V14.01,2013-02-24 08:08:00,
2013-02-24 03:13:00,37.0,32.6,29.84,East,98,6.0,8.0,84,0.02,,,0.04,VWS V14.01,2013-02-24 08:13:00,
2013-02-24 03:18:00,36.9,32.5,29.84,ENE,70,6.0,6.0,84,0.02,,,0.04,VWS V14.01,2013-02-24 08:18:00,
2013-02-24 03:23:00,36.9,32.2,29.84,East,94,6.0,7.0,83,0.02,,,0.04,VWS V14.01,2013-02-24 08:23:00,
2013-02-24 03:28:00,36.9,32.2,29.84,NE,44,4.0,5.0,83,0.02,,,0.04,VWS V14.01,2013-02-24 08:28:00,
2013-02-24 03:33:00,36.9,32.2,29.84,ENE,60,4.0,5.0,83,0.01,,-RA,0.04,VWS V14.01,2013-02-24 08:33:00,
2013-02-24 03:38:00,36.9,31.9,29.83,ESE,105,6.0,6.0,82,0.01,,-RA,0.04,VWS V14.01,2013-02-24 08:38:00,
2013-02-24 03:43:00,36.9,31.9,29.83,ENE,78,5.0,7.0,82,0.02,,-RA,0.05,VWS V14.01,2013-02-24 08:43:00,
2013-02-24 03:48:00,36.9,31.9,29.82,NE,43,5.0,6.0,82,0.02,,-RA,0.05,VWS V14.01,2013-02-24 08:48:00,
2013-02-24 03:53:00,36.9,31.9,29.82,East,84,5.0,7.0,82,0.02,,-RA,0.05,VWS V14.01,2013-02-24 08:53:00,
2013-02-24 03:58:00,36.9,31.9,29.82,ENE,65,5.0,7.0,82,0.01,,-RA,0.05,VWS V14.01,2013-02-24 08:58:00,
2013-02-24 04:03:00,36.9,31.9,29.82,ESE,108,3.0,4.0,82,0.01,,-RA,0.05,VWS V14.01,2013-02-24 09:03:00,
2013-02-24 04:08:00,36.9,31.9,29.82,East,81,2.0,7.0,82,0.01,,-RA,0.05,VWS V14.01,2013-02-24 09:08:00,
2013-02-24 04:13:00,36.9,31.6,29.82,ESE,112,5.0,6.0,81,0.01,,-RA,0.05,VWS V14.01,2013-02-24 09:13:00,
2013-02-24 04:18:00,37.0,32.0,29.82,NE,46,7.0,13.0,82,0.01,,-RA,0.05,VWS V14.01,2013-02-24 09:18:00,
2013-02-24 04:23:00,37.0,32.0,29.82,NE,46,3.0,5.0,82,0.01,,-RA,0.05,VWS V14.01,2013-02-24 09:23:00,
2013-02-24 04:28:00,36.9,31.9,29.82,ENE,68,4.0,7.0,82,0.01,,-RA,0.05,VWS V14.01,2013-02-24 09:28:00,
2013-02-24 04:33:00,36.9,32.2,29.82,East,93,2.0,6.0,83,0.01,,-RA,0.05,VWS V14.01,2013-02-24 09:33:00,
2013-02-24 04:38:00,36.9,32.2,29.82,East,81,4.0,5.0,83,0.02,,-RA,0.06,VWS V14.01,2013-02-24 09:38:00,
2013-02-24 04:43:00,36.9,31.9,29.82,NE,36,4.0,8.0,82,0.01,,-RA,0.06,VWS V14.01,2013-02-24 09:43:00,
2013-02-24 04:48:00,36.9,31.9,29.82,ENE,70,3.0,7.0,82,0.01,,-RA,0.06,VWS V14.01,2013-02-24 09:48:00,
2013-02-24 04:53:00,36.9,31.9,29.82,NE,50,5.0,6.0,82,0.01,,-RA,0.06,VWS V14.01,2013-02-24 09:53:00,
2013-02-24 04:58:00,36.9,31.9,29.82,North,11,4.0,7.0,82,0.01,,-RA,0.06,VWS V14.01,2013-02-24 09:58:00,
2013-02-24 05:03:00,36.8,31.8,29.82,ESE,103,4.0,8.0,82,0.01,,-RA,0.06,VWS V14.01,2013-02-24 10:03:00,
2013-02-24 05:08:00,36.8,31.8,29.82,NE,40,5.0,7.0,82,0.01,,-RA,0.06,VWS V14.01,2013-02-24 10:08:00,
2013-02-24 05:13:00,36.7,31.4,29.81,ENE,61,6.0,7.0,81,0.01,,-RA,0.06,VWS V14.01,2013-02-24 10:13:00,
2013-02-24 05:18:00,36.7,31.4,29.80,ENE,68,4.0,6.0,81,0.01,,-RA,0.06,VWS V14.01,2013-02-24 10:18:00,
2013-02-24 05:23:00,36.7,31.4,29.81,ENE,65,5.0,9.0,81,0.01,,-RA,0.06,VWS V14.01,2013-02-24 10:23:00,
2013-02-24 05:28:00,36.8,31.2,29.81,ENE,68,6.0,9.0,80,0.02,,-RA,0.07,VWS V14.01,2013-02-24 10:28:00,
2013-02-24 05:33:00,36.8,31.5,29.81,NE,39,4.0,6.0,81,0.02,,-RA,0.07,VWS V14.01,2013-02-24 10:33:00,
2013-02-24 05:38:00,36.8,31.5,29.81,ENE,68,3.0,7.0,81,0.01,,-RA,0.07,VWS V14.01,2013-02-24 10:38:00,
2013-02-24 05:43:00,36.7,31.4,29.81,East,84,6.0,6.0,81,0.01,,-RA,0.07,VWS V14.01,2013-02-24 10:43:00,
2013-02-24 05:48:00,36.7,31.7,29.81,NNE,30,4.0,9.0,82,0.01,,-RA,0.07,VWS V14.01,2013-02-24 10:48:00,
2013-02-24 05:53:00,36.6,31.6,29.81,East,98,5.0,10.0,82,0.01,,-RA,0.07,VWS V14.01,2013-02-24 10:53:00,
2013-02-24 05:58:00,36.5,31.8,29.82,NE,54,6.0,6.0,83,0.01,,-RA,0.07,VWS V14.01,2013-02-24 10:58:00,
2013-02-24 06:03:00,36.5,31.5,29.82,ENE,58,6.0,9.0,82,0.01,,-RA,0.07,VWS V14.01,2013-02-24 11:03:00,
2013-02-24 06:08:00,36.5,31.8,29.82,ENE,58,4.0,5.0,83,0.02,,-RA,0.08,VWS V14.01,2013-02-24 11:08:00,
2013-02-24 06:13:00,36.4,31.4,29.82,East,84,4.0,6.0,82,0.02,,-RA,0.08,VWS V14.01,2013-02-24 11:13:00,
2013-02-24 06:18:00,36.4,31.7,29.82,NE,47,5.0,8.0,83,0.02,,-RA,0.08,VWS V14.01,2013-02-24 11:18:00,
2013-02-24 06:23:00,36.3,31.6,29.82,NE,41,10.0,10.0,83,0.02,,-RA,0.08,VWS V14.01,2013-02-24 11:23:00,
2013-02-24 06:28:00,36.3,31.6,29.81,ENE,60,6.0,8.0,83,0.01,,-RA,0.08,VWS V14.01,2013-02-24 11:28:00,
2013-02-24 06:33:00,36.2,31.5,29.81,East,79,6.0,8.0,83,0.02,,-RA,0.09,VWS V14.01,2013-02-24 11:33:00,
2013-02-24 06:38:00,36.1,31.5,29.81,NE,43,3.0,7.0,83,0.02,,-RA,0.09,VWS V14.01,2013-02-24 11:38:00,
2013-02-24 06:43:00,36.0,31.4,29.81,East,84,10.0,10.0,83,0.02,,-RA,0.09,VWS V14.01,2013-02-24 11:43:00,
2013-02-24 06:48:00,35.9,31.2,29.81,NE,56,5.0,8.0,83,0.02,,-RA,0.09,VWS V14.01,2013-02-24 11:48:00,
2013-02-24 06:53:00,35.9,31.0,29.80,East,79,7.0,8.0,82,0.02,,-RA,0.09,VWS V14.01,2013-02-24 11:53:00,
2013-02-24 06:58:00,35.9,31.0,29.81,NE,47,5.0,5.0,82,0.02,,-RA,0.09,VWS V14.01,2013-02-24 11:58:00,
2013-02-24 07:03:00,35.8,30.9,29.80,North,8,5.0,8.0,82,0.02,,-RA,0.09,VWS V14.01,2013-02-24 12:03:00,
2013-02-24 07:08:00,35.8,30.9,29.81,NE,51,5.0,5.0,82,0.01,,-RA,0.09,VWS V14.01,2013-02-24 12:08:00,
2013-02-24 07:13:00,35.7,30.5,29.81,ENE,61,5.0,10.0,81,0.01,,-RA,0.09,VWS V14.01,2013-02-24 12:13:00,
2013-02-24 07:18:00,35.7,30.5,29.81,ENE,74,6.0,7.0,81,0.01,,-RA,0.09,VWS V14.01,2013-02-24 12:18:00,
2013-02-24 07:23:00,35.6,30.4,29.81,NNE,30,6.0,10.0,81,0.01,,-RA,0.09,VWS V14.01,2013-02-24 12:23:00,
2013-02-24 07:28:00,35.6,30.4,29.81,NNE,25,8.0,8.0,81,0.01,,-RA,0.09,VWS V14.01,2013-02-24 12:28:00,
2013-02-24 07:33:00,35.6,30.4,29.80,ENE,60,5.0,8.0,81,0.00,,-RA,0.09,VWS V14.01,2013-02-24 12:33:00,
2013-02-24 07:38:00,35.6,30.4,29.81,NE,56,5.0,5.0,81,0.01,,-RA,0.10,VWS V14.01,2013-02-24 12:38:00,
2013-02-24 07:44:00,35.5,30.3,29.81,NE,41,6.0,8.0,81,0.01,,-RA,0.10,VWS V14.01,2013-02-24 12:44:00,
2013-02-24 07:49:00,35.5,30.3,29.81,ENE,68,7.0,9.0,81,0.01,,-RA,0.10,VWS V14.01,2013-02-24 12:49:00,
2013-02-24 07:54:00,35.6,30.4,29.81,NE,56,6.0,6.0,81,0.01,,-RA,0.10,VWS V14.01,2013-02-24 12:54:00,
2013-02-24 07:59:00,35.6,30.4,29.81,NE,37,6.0,10.0,81,0.01,,-RA,0.10,VWS V14.01,2013-02-24 12:59:00,
2013-02-24 08:04:00,35.5,30.3,29.81,NE,49,4.0,6.0,81,0.01,,-RA,0.10,VWS V14.01,2013-02-24 13:04:00,
2013-02-24 08:09:00,35.5,30.3,29.80,ENE,60,9.0,9.0,81,0.01,,-RA,0.10,VWS V14.01,2013-02-24 13:09:00,
2013-02-24 08:14:00,35.4,30.2,29.80,NE,56,4.0,9.0,81,0.02,,-RA,0.11,VWS V14.01,2013-02-24 13:14:00,
2013-02-24 08:19:00,35.3,30.1,29.79,ENE,60,9.0,11.0,81,0.02,,-RA,0.11,VWS V14.01,2013-02-24 13:19:00,
2013-02-24 08:24:00,35.2,30.3,29.78,East,79,6.0,11.0,82,0.02,,-RA,0.11,VWS V14.01,2013-02-24 13:24:00,
2013-02-24 08:29:00,35.1,30.2,29.78,NNE,25,7.0,10.0,82,0.03,,-RA,0.12,VWS V14.01,2013-02-24 13:29:00,
2013-02-24 08:34:00,35.0,30.1,29.78,NNE,27,7.0,8.0,82,0.03,,-RA,0.12,VWS V14.01,2013-02-24 13:34:00,
2013-02-24 08:39:00,35.0,29.8,29.78,NE,43,7.0,10.0,81,0.02,,,0.12,VWS V14.01,2013-02-24 13:39:00,
2013-02-24 08:44:00,34.9,30.0,29.78,ENE,58,8.0,8.0,82,0.02,,,0.12,VWS V14.01,2013-02-24 13:44:00,
2013-02-24 08:49:00,34.8,29.9,29.77,North,4,7.0,10.0,82,0.03,,,0.13,VWS V14.01,2013-02-24 13:49:00,
2013-02-24 08:54:00,34.5,29.6,29.77,East,86,4.0,7.0,82,0.03,,,0.13,VWS V14.01,2013-02-24 13:54:00,
2013-02-24 08:59:00,34.3,29.4,29.77,NE,49,4.0,10.0,82,0.03,,,0.13,VWS V14.01,2013-02-24 13:59:00,
2013-02-24 09:04:00,34.0,29.4,29.77,NE,34,6.0,7.0,83,0.03,,,0.13,VWS V14.01,2013-02-24 14:04:00,
2013-02-24 09:09:00,33.8,28.9,29.77,NNW,347,2.0,7.0,82,0.03,,,0.13,VWS V14.01,2013-02-24 14:09:00,
2013-02-24 09:14:00,33.7,28.8,29.77,ENE,64,2.0,5.0,82,0.02,,,0.13,VWS V14.01,2013-02-24 14:14:00,
2013-02-24 09:19:00,33.6,28.7,29.77,ENE,60,4.0,4.0,82,0.02,,,0.13,VWS V14.01,2013-02-24 14:19:00,
2013-02-24 09:24:00,33.5,28.6,29.77,NE,51,3.0,6.0,82,0.02,,,0.13,VWS V14.01,2013-02-24 14:24:00,
2013-02-24 09:29:00,33.4,28.5,29.77,East,92,8.0,8.0,82,0.02,,,0.13,VWS V14.01,2013-02-24 14:29:00,
2013-02-24 09:34:00,33.4,28.5,29.77,ENE,67,3.0,7.0,82,0.01,,,0.13,VWS V14.01,2013-02-24 14:34:00,
2013-02-24 09:39:00,33.4,28.5,29.77,ENE,60,5.0,9.0,82,0.01,,,0.13,VWS V14.01,2013-02-24 14:39:00,
2013-02-24 09:44:00,33.3,28.4,29.77,ENE,61,5.0,7.0,82,0.01,,,0.13,VWS V14.01,2013-02-24 14:44:00,
2013-02-24 09:49:00,33.3,28.4,29.76,NE,53,4.0,5.0,82,0.00,,,0.13,VWS V14.01,2013-02-24 14:49:00,
2013-02-24 09:54:00,33.3,28.4,29.76,NE,47,3.0,7.0,82,0.00,,,0.13,VWS V14.01,2013-02-24 14:54:00,
2013-02-24 09:59:00,33.3,28.4,29.75,NNE,29,4.0,6.0,82,0.00,,,0.13,VWS V14.01,2013-02-24 14:59:00,
2013-02-24 10:04:00,33.3,28.4,29.75,NE,49,3.0,5.0,82,0.00,,,0.13,VWS V14.01,2013-02-24 15:04:00,
2013-02-24 10:09:00,33.3,28.7,29.76,NE,56,4.0,6.0,83,0.00,,,0.13,VWS V14.01,2013-02-24 15:09:00,
2013-02-24 10:14:00,33.4,28.8,29.75,NE,41,3.0,4.0,83,0.00,,,0.13,VWS V14.01,2013-02-24 15:14:00,
2013-02-24 10:19:00,33.3,28.7,29.76,NE,49,6.0,6.0,83,0.00,,,0.13,VWS V14.01,2013-02-24 15:19:00,
2013-02-24 10:24:00,33.4,28.8,29.75,NE,47,11.0,11.0,83,0.00,,,0.13,VWS V14.01,2013-02-24 15:24:00,
2013-02-24 10:29:00,33.4,28.8,29.75,NE,44,3.0,5.0,83,0.01,,,0.14,VWS V14.01,2013-02-24 15:29:00,
2013-02-24 10:34:00,33.3,28.7,29.75,NE,36,3.0,5.0,83,0.01,,,0.14,VWS V14.01,2013-02-24 15:34:00,
2013-02-24 10:39:00,33.3,28.7,29.75,NE,46,5.0,5.0,83,0.01,,,0.14,VWS V14.01,2013-02-24 15:39:00,
2013-02-24 10:44:00,33.3,28.7,29.75,NE,47,7.0,7.0,83,0.01,,,0.14,VWS V14.01,2013-02-24 15:44:00,
2013-02-24 10:49:00,33.2,28.6,29.75,ENE,78,4.0,5.0,83,0.01,,,0.14,VWS V14.01,2013-02-24 15:49:00,
2013-02-24 10:54:00,33.2,28.6,29.75,ENE,70,4.0,6.0,83,0.01,,,0.14,VWS V14.01,2013-02-24 15:54:00,
2013-02-24 10:59:00,33.2,28.6,29.74,ENE,65,8.0,10.0,83,0.01,,,0.14,VWS V14.01,2013-02-24 15:59:00,
2013-02-24 11:05:00,33.2,28.3,29.74,ENE,75,5.0,8.0,82,0.01,,,0.14,VWS V14.01,2013-02-24 16:05:00,
2013-02-24 11:10:00,33.1,28.2,29.74,ENE,61,4.0,5.0,82,0.01,,,0.14,VWS V14.01,2013-02-24 16:10:00,
2013-02-24 11:15:00,33.1,28.2,29.75,NNE,15,4.0,6.0,82,0.01,,,0.14,VWS V14.01,2013-02-24 16:15:00,
2013-02-24 11:20:00,33.1,28.2,29.75,ENE,70,6.0,6.0,82,0.01,,,0.14,VWS V14.01,2013-02-24 16:20:00,
2013-02-24 11:25:00,33.1,28.2,29.74,ENE,75,5.0,8.0,82,0.01,,,0.14,VWS V14.01,2013-02-24 16:25:00,
2013-02-24 11:30:00,33.1,28.2,29.74,NE,46,5.0,5.0,82,0.00,,,0.14,VWS V14.01,2013-02-24 16:30:00,
2013-02-24 11:35:00,33.2,28.0,29.74,ENE,74,4.0,5.0,81,0.00,,,0.14,VWS V14.01,2013-02-24 16:35:00,
2013-02-24 11:40:00,33.1,27.9,29.74,East,82,9.0,9.0,81,0.00,,,0.14,VWS V14.01,2013-02-24 16:40:00,
2013-02-24 11:45:00,33.1,27.9,29.74,NE,41,5.0,6.0,81,0.00,,,0.14,VWS V14.01,2013-02-24 16:45:00,
2013-02-24 11:50:00,33.0,27.8,29.74,East,81,9.0,10.0,81,0.00,,,0.14,VWS V14.01,2013-02-24 16:50:00,
2013-02-24 11:55:00,33.0,27.8,29.74,North,11,5.0,8.0,81,0.00,,,0.14,VWS V14.01,2013-02-24 16:55:00,
2013-02-24 12:00:00,32.9,27.7,29.73,East,81,4.0,9.0,81,0.00,,,0.14,VWS V14.01,2013-02-24 17:00:00,
2013-02-24 12:05:00,32.8,27.6,29.73,ENE,76,7.0,7.0,81,0.00,,,0.14,VWS V14.01,2013-02-24 17:05:00,
2013-02-24 12:10:00,32.8,27.6,29.73,ENE,68,6.0,7.0,81,0.00,,,0.14,VWS V14.01,2013-02-24 17:10:00,
2013-02-24 12:15:00,32.8,27.6,29.73,NE,40,5.0,6.0,81,0.00,,,0.14,VWS V14.01,2013-02-24 17:15:00,
2013-02-24 12:20:00,32.7,27.5,29.73,NE,47,4.0,4.0,81,0.00,,,0.14,VWS V14.01,2013-02-24 17:20:00,
2013-02-24 12:25:00,32.7,27.2,29.74,ENE,63,3.0,5.0,80,0.00,,,0.14,VWS V14.01,2013-02-24 17:25:00,
2013-02-24 12:31:00,32.7,27.2,29.73,NNE,33,4.0,7.0,80,0.00,,,0.14,VWS V14.01,2013-02-24 17:31:00,
2013-02-24 12:36:00,32.7,27.2,29.74,ENE,61,4.0,4.0,80,0.00,,,0.14,VWS V14.01,2013-02-24 17:36:00,
2013-02-24 12:41:00,32.6,27.1,29.73,NNE,23,3.0,5.0,80,0.00,,,0.14,VWS V14.01,2013-02-24 17:41:00,
2013-02-24 12:46:00,32.6,27.1,29.73,NE,47,2.0,6.0,80,0.00,,,0.14,VWS V14.01,2013-02-24 17:46:00,
2013-02-24 12:51:00,32.6,27.1,29.73,NE,36,3.0,5.0,80,0.00,,,0.14,VWS V14.01,2013-02-24 17:51:00,
2013-02-24 12:56:00,32.5,27.0,29.73,NNE,25,5.0,5.0,80,0.00,,,0.14,VWS V14.01,2013-02-24 17:56:00,
2013-02-24 13:01:00,32.5,27.0,29.73,NE,49,5.0,9.0,80,0.00,,,0.14,VWS V14.01,2013-02-24 18:01:00,
2013-02-24 13:06:00,32.5,27.0,29.72,ENE,58,5.0,5.0,80,0.00,,,0.14,VWS V14.01,2013-02-24 18:06:00,
2013-02-24 13:11:00,32.4,26.6,29.72,NNW,345,4.0,6.0,79,0.00,,,0.14,VWS V14.01,2013-02-24 18:11:00,
2013-02-24 13:16:00,32.4,26.6,29.72,NNE,23,4.0,10.0,79,0.00,,,0.14,VWS V14.01,2013-02-24 18:16:00,
2013-02-24 13:21:00,32.3,26.5,29.72,NE,41,3.0,4.0,79,0.00,,,0.14,VWS V14.01,2013-02-24 18:21:00,
2013-02-24 13:27:00,32.3,26.5,29.72,North,353,1.0,6.0,79,0.00,,,0.14,VWS V14.01,2013-02-24 18:27:00,
2013-02-24 13:32:00,32.3,26.5,29.72,NE,36,4.0,5.0,79,0.00,,,0.14,VWS V14.01,2013-02-24 18:32:00,
2013-02-24 13:37:00,32.3,26.5,29.72,NE,50,2.0,5.0,79,0.00,,,0.14,VWS V14.01,2013-02-24 18:37:00,
2013-02-24 13:42:00,32.2,26.4,29.72,ENE,72,5.0,7.0,79,0.00,,,0.14,VWS V14.01,2013-02-24 18:42:00,
2013-02-24 13:47:00,32.2,26.4,29.72,NE,41,5.0,5.0,79,0.00,,,0.14,VWS V14.01,2013-02-24 18:47:00,
2013-02-24 13:52:00,32.2,26.4,29.72,NE,56,2.0,3.0,79,0.00,,,0.14,VWS V14.01,2013-02-24 18:52:00,
2013-02-24 13:57:00,32.2,26.4,29.72,North,6,3.0,3.0,79,0.00,,,0.14,VWS V14.01,2013-02-24 18:57:00,
2013-02-24 14:02:00,32.2,26.4,29.71,NNW,340,2.0,6.0,79,0.00,,,0.14,VWS V14.01,2013-02-24 19:02:00,
2013-02-24 14:08:00,32.1,26.3,29.71,NE,49,1.0,4.0,79,0.00,,,0.14,VWS V14.01,2013-02-24 19:08:00,
2013-02-24 14:13:00,32.1,26.3,29.71,NNE,20,2.0,6.0,79,0.00,,,0.14,VWS V14.01,2013-02-24 19:13:00,
2013-02-24 14:18:00,32.1,26.3,29.71,NNW,346,2.0,6.0,79,0.00,,,0.14,VWS V14.01,2013-02-24 19:18:00,
2013-02-24 14:23:00,32.1,26.3,29.71,North,6,1.0,5.0,79,0.00,,,0.14,VWS V14.01,2013-02-24 19:23:00,
2013-02-24 14:28:00,32.1,26.3,29.71,East,98,2.0,4.0,79,0.00,,,0.14,VWS V14.01,2013-02-24 19:28:00,
2013-02-24 14:33:00,32.1,26.3,29.71,NNE,18,3.0,4.0,79,0.01,,,0.15,VWS V14.01,2013-02-24 19:33:00,
2013-02-24 14:38:00,32.0,26.2,29.71,NE,36,3.0,3.0,79,0.01,,,0.15,VWS V14.01,2013-02-24 19:38:00,
2013-02-24 14:43:00,32.0,26.2,29.71,NE,36,3.0,8.0,79,0.01,,,0.15,VWS V14.01,2013-02-24 19:43:00,
2013-02-24 14:48:00,32.0,26.2,29.71,NE,43,4.0,4.0,79,0.01,,,0.15,VWS V14.01,2013-02-24 19:48:00,
2013-02-24 14:53:00,32.0,26.2,29.71,NE,53,4.0,6.0,79,0.01,,,0.15,VWS V14.01,2013-02-24 19:53:00,
2013-02-24 14:58:00,32.0,26.2,29.72,NE,44,6.0,7.0,79,0.01,,,0.15,VWS V14.01,2013-02-24 19:58:00,
2013-02-24 15:04:00,32.0,26.2,29.71,ENE,68,4.0,4.0,79,0.01,,,0.15,VWS V14.01,2013-02-24 20:04:00,
2013-02-24 15:09:00,31.9,26.1,29.72,NE,44,5.0,6.0,79,0.01,,,0.15,VWS V14.01,2013-02-24 20:09:00,
2013-02-24 15:14:00,31.9,26.1,29.72,NNE,27,4.0,5.0,79,0.01,,,0.15,VWS V14.01,2013-02-24 20:14:00,
2013-02-24 15:19:00,31.9,26.1,29.72,NNE,15,4.0,7.0,79,0.01,,,0.15,VWS V14.01,2013-02-24 20:19:00,
2013-02-24 15:24:00,31.8,26.0,29.72,NE,47,2.0,7.0,79,0.01,,,0.15,VWS V14.01,2013-02-24 20:24:00,
2013-02-24 15:29:00,31.8,26.0,29.72,North,4,4.0,7.0,79,0.01,,,0.15,VWS V14.01,2013-02-24 20:29:00,
2013-02-24 15:34:00,31.8,26.0,29.72,NNE,15,4.0,4.0,79,0.00,,,0.15,VWS V14.01,2013-02-24 20:34:00,
2013-02-24 15:39:00,31.8,26.0,29.72,ENE,68,5.0,5.0,79,0.00,,,0.15,VWS V14.01,2013-02-24 20:39:00,
2013-02-24 15:44:00,31.7,25.9,29.72,ENE,63,4.0,4.0,79,0.00,,,0.15,VWS V14.01,2013-02-24 20:44:00,
2013-02-24 15:49:00,31.7,25.9,29.73,NNE,27,2.0,4.0,79,0.00,,,0.15,VWS V14.01,2013-02-24 20:49:00,
2013-02-24 15:54:00,31.6,25.9,29.73,NNE,30,4.0,7.0,79,0.00,,,0.15,VWS V14.01,2013-02-24 20:54:00,
2013-02-24 15:59:00,31.6,25.9,29.73,NNE,12,1.0,5.0,79,0.00,,,0.15,VWS V14.01,2013-02-24 20:59:00,
2013-02-24 16:05:00,31.7,25.9,29.73,North,360,2.0,5.0,79,0.00,,,0.15,VWS V14.01,2013-02-24 21:05:00,
2013-02-24 16:10:00,31.6,25.9,29.73,NE,53,5.0,5.0,79,0.00,,,0.15,VWS V14.01,2013-02-24 21:10:00,
2013-02-24 16:15:00,31.6,25.9,29.73,NE,54,6.0,6.0,79,0.00,,,0.15,VWS V14.01,2013-02-24 21:15:00,
2013-02-24 16:20:00,31.5,25.8,29.74,NNE,32,2.0,2.0,79,0.00,,,0.15,VWS V14.01,2013-02-24 21:20:00,
2013-02-24 16:25:00,31.5,25.8,29.74,NNE,33,3.0,5.0,79,0.00,,,0.15,VWS V14.01,2013-02-24 21:25:00,
2013-02-24 16:30:00,31.5,25.8,29.74,North,9,3.0,4.0,79,0.00,,,0.15,VWS V14.01,2013-02-24 21:30:00,
2013-02-24 16:35:00,31.4,25.6,29.74,NE,53,2.0,2.0,79,0.00,,,0.15,VWS V14.01,2013-02-24 21:35:00,
2013-02-24 16:40:00,31.4,25.6,29.74,North,5,2.0,3.0,79,0.00,,,0.15,VWS V14.01,2013-02-24 21:40:00,
2013-02-24 16:45:00,31.4,25.6,29.74,NE,37,3.0,3.0,79,0.00,,,0.15,VWS V14.01,2013-02-24 21:45:00,
2013-02-24 16:50:00,31.3,25.6,29.74,North,353,1.0,5.0,79,0.00,,,0.15,VWS V14.01,2013-02-24 21:50:00,
2013-02-24 16:56:00,31.3,25.6,29.74,ENE,68,4.0,7.0,79,0.00,,,0.15,VWS V14.01,2013-02-24 21:56:00,
2013-02-24 17:01:00,31.1,25.4,29.75,NE,54,2.0,4.0,79,0.00,,,0.15,VWS V14.01,2013-02-24 22:01:00,
2013-02-24 17:06:00,31.1,25.4,29.75,NE,53,3.0,6.0,79,0.00,,,0.15,VWS V14.01,2013-02-24 22:06:00,
2013-02-24 17:11:00,31.1,25.4,29.75,NE,56,4.0,4.0,79,0.00,,,0.15,VWS V14.01,2013-02-24 22:11:00,
2013-02-24 17:16:00,31.1,25.4,29.75,NE,56,1.0,2.0,79,0.00,,,0.15,VWS V14.01,2013-02-24 22:16:00,
2013-02-24 17:21:00,31.1,25.4,29.75,NNE,13,3.0,4.0,79,0.00,,,0.15,VWS V14.01,2013-02-24 22:21:00,
2013-02-24 17:26:00,31.0,25.3,29.75,NE,53,2.0,2.0,79,0.00,,,0.15,VWS V14.01,2013-02-24 22:26:00,
2013-02-24 17:31:00,31.0,25.3,29.76,NE,51,3.0,5.0,79,0.00,,,0.15,VWS V14.01,2013-02-24 22:31:00,
2013-02-24 17:36:00,31.0,25.3,29.76,East,84,2.0,5.0,79,0.00,,,0.15,VWS V14.01,2013-02-24 22:36:00,
2013-02-24 17:41:00,31.0,25.3,29.76,NNE,30,1.0,4.0,79,0.00,,,0.15,VWS V14.01,2013-02-24 22:41:00,
2013-02-24 17:46:00,31.0,25.3,29.76,NE,43,4.0,5.0,79,0.00,,,0.15,VWS V14.01,2013-02-24 22:46:00,
2013-02-24 17:51:00,31.0,25.3,29.76,NE,37,2.0,4.0,79,0.00,,,0.15,VWS V14.01,2013-02-24 22:51:00,
2013-02-24 17:56:00,31.0,25.3,29.77,North,11,3.0,3.0,79,0.00,,,0.15,VWS V14.01,2013-02-24 22:56:00,
2013-02-24 18:01:00,31.0,25.3,29.77,NNE,16,1.0,2.0,79,0.00,,,0.15,VWS V14.01,2013-02-24 23:01:00,
2013-02-24 18:06:00,31.1,25.4,29.77,North,11,2.0,4.0,79,0.00,,,0.15,VWS V14.01,2013-02-24 23:06:00,
2013-02-24 18:11:00,31.0,25.3,29.78,NNW,330,1.0,2.0,79,0.00,,,0.15,VWS V14.01,2013-02-24 23:11:00,
2013-02-24 18:16:00,31.1,25.4,29.78,ENE,58,1.0,4.0,79,0.00,,,0.15,VWS V14.01,2013-02-24 23:16:00,
2013-02-24 18:21:00,31.0,25.3,29.78,NE,44,1.0,3.0,79,0.00,,,0.15,VWS V14.01,2013-02-24 23:21:00,
2013-02-24 18:26:00,31.0,25.6,29.78,NE,43,1.0,5.0,80,0.00,,,0.15,VWS V14.01,2013-02-24 23:26:00,
2013-02-24 18:31:00,31.0,25.6,29.78,North,351,3.0,3.0,80,0.00,,,0.15,VWS V14.01,2013-02-24 23:31:00,
2013-02-24 18:36:00,30.9,25.5,29.79,North,1,2.0,3.0,80,0.00,,,0.15,VWS V14.01,2013-02-24 23:36:00,
2013-02-24 18:41:00,30.8,25.4,29.79,North,350,1.0,4.0,80,0.00,,,0.15,VWS V14.01,2013-02-24 23:41:00,
2013-02-24 18:46:00,30.8,25.4,29.79,NNE,32,2.0,2.0,80,0.00,,,0.15,VWS V14.01,2013-02-24 23:46:00,
2013-02-24 18:51:00,30.7,25.3,29.79,ENE,74,3.0,3.0,80,0.00,,,0.15,VWS V14.01,2013-02-24 23:51:00,
2013-02-24 18:56:00,30.6,25.2,29.79,NE,36,3.0,4.0,80,0.00,,,0.15,VWS V14.01,2013-02-24 23:56:00,
2013-02-24 19:01:00,30.6,25.2,29.79,NNW,348,2.0,4.0,80,0.00,,,0.15,VWS V14.01,2013-02-25 00:01:00,
2013-02-24 19:06:00,30.6,25.2,29.80,NNE,25,2.0,3.0,80,0.00,,,0.15,VWS V14.01,2013-02-25 00:06:00,
2013-02-24 19:11:00,30.6,25.2,29.80,NE,44,4.0,4.0,80,0.00,,,0.15,VWS V14.01,2013-02-25 00:11:00,
2013-02-24 19:16:00,30.6,25.2,29.80,NW,316,2.0,4.0,80,0.00,,,0.15,VWS V14.01,2013-02-25 00:16:00,
2013-02-24 19:21:00,30.5,25.1,29.80,NNW,347,2.0,2.0,80,0.00,,,0.15,VWS V14.01,2013-02-25 00:21:00,
2013-02-24 19:26:00,30.4,25.0,29.80,NNW,327,1.0,3.0,80,0.00,,,0.15,VWS V14.01,2013-02-25 00:26:00,
2013-02-24 19:31:00,30.4,25.0,29.81,NE,53,1.0,1.0,80,0.00,,,0.15,VWS V14.01,2013-02-25 00:31:00,
2013-02-24 19:36:00,30.4,25.0,29.81,NNW,346,2.0,4.0,80,0.00,,,0.15,VWS V14.01,2013-02-25 00:36:00,
2013-02-24 19:41:00,30.4,25.0,29.81,ENE,60,5.0,6.0,80,0.00,,,0.15,VWS V14.01,2013-02-25 00:41:00,
2013-02-24 19:46:00,30.3,24.9,29.81,NW,326,2.0,3.0,80,0.00,,,0.15,VWS V14.01,2013-02-25 00:46:00,
2013-02-24 19:51:00,30.3,24.9,29.82,NNW,345,3.0,4.0,80,0.00,,,0.15,VWS V14.01,2013-02-25 00:51:00,
2013-02-24 19:56:00,30.2,24.8,29.82,NE,46,1.0,3.0,80,0.00,,,0.15,VWS V14.01,2013-02-25 00:56:00,
2013-02-24 20:01:00,30.2,24.8,29.82,NE,43,2.0,2.0,80,0.00,,,0.15,VWS V14.01,2013-02-25 01:01:00,
2013-02-24 20:06:00,30.2,24.8,29.82,North,360,1.0,3.0,80,0.00,,,0.15,VWS V14.01,2013-02-25 01:06:00,
2013-02-24 20:11:00,30.2,24.8,29.82,NW,316,1.0,3.0,80,0.00,,,0.15,VWS V14.01,2013-02-25 01:11:00,
2013-02-24 20:16:00,30.1,24.7,29.82,NE,51,3.0,7.0,80,0.00,,,0.15,VWS V14.01,2013-02-25 01:16:00,
2013-02-24 20:21:00,30.1,24.7,29.82,NE,36,2.0,3.0,80,0.00,,,0.15,VWS V14.01,2013-02-25 01:21:00,
2013-02-24 20:26:00,30.0,24.6,29.83,NNE,20,1.0,3.0,80,0.00,,,0.15,VWS V14.01,2013-02-25 01:26:00,
2013-02-24 20:31:00,30.0,24.6,29.83,NNE,32,2.0,2.0,80,0.00,,,0.15,VWS V14.01,2013-02-25 01:31:00,
2013-02-24 20:36:00,30.0,24.6,29.83,NNW,346,1.0,2.0,80,0.00,,,0.15,VWS V14.01,2013-02-25 01:36:00,
2013-02-24 20:41:00,30.0,24.6,29.83,NNW,330,2.0,2.0,80,0.00,,,0.15,VWS V14.01,2013-02-25 01:41:00,
2013-02-24 20:46:00,29.9,24.5,29.83,ENE,58,3.0,4.0,80,0.00,,,0.15,VWS V14.01,2013-02-25 01:46:00,
2013-02-24 20:51:00,29.9,24.5,29.83,North,8,0.0,1.0,80,0.00,,,0.15,VWS V14.01,2013-02-25 01:51:00,
2013-02-24 20:56:00,29.9,24.5,29.84,NNE,22,1.0,1.0,80,0.00,,,0.15,VWS V14.01,2013-02-25 01:56:00,
2013-02-24 21:01:00,29.9,24.5,29.84,North,4,3.0,4.0,80,0.00,,,0.15,VWS V14.01,2013-02-25 02:01:00,
2013-02-24 21:06:00,29.8,24.4,29.84,North,352,1.0,2.0,80,0.00,,,0.15,VWS V14.01,2013-02-25 02:06:00,
2013-02-24 21:12:00,29.8,24.4,29.84,ENE,77,1.0,2.0,80,0.00,,,0.15,VWS V14.01,2013-02-25 02:12:00,
2013-02-24 21:17:00,29.8,24.4,29.84,NNW,343,2.0,4.0,80,0.00,,,0.15,VWS V14.01,2013-02-25 02:17:00,
2013-02-24 21:22:00,29.8,24.4,29.84,ENE,65,1.0,2.0,80,0.00,,,0.15,VWS V14.01,2013-02-25 02:22:00,
2013-02-24 21:27:00,29.8,24.4,29.84,North,354,2.0,2.0,80,0.00,,,0.15,VWS V14.01,2013-02-25 02:27:00,
2013-02-24 21:32:00,29.8,24.4,29.84,NE,36,1.0,3.0,80,0.00,,,0.15,VWS V14.01,2013-02-25 02:32:00,
2013-02-24 21:37:00,29.7,24.3,29.84,NNW,327,1.0,2.0,80,0.00,,,0.15,VWS V14.01,2013-02-25 02:37:00,
2013-02-24 21:42:00,29.7,24.3,29.85,NNE,20,1.0,1.0,80,0.00,,,0.15,VWS V14.01,2013-02-25 02:42:00,
2013-02-24 21:47:00,29.8,24.4,29.85,North,356,1.0,1.0,80,0.00,,,0.15,VWS V14.01,2013-02-25 02:47:00,
2013-02-24 21:52:00,29.8,24.4,29.85,NNW,333,0.0,0.0,80,0.00,,,0.15,VWS V14.01,2013-02-25 02:52:00,
2013-02-24 21:57:00,29.7,24.3,29.85,NE,34,1.0,2.0,80,0.00,,,0.15,VWS V14.01,2013-02-25 02:57:00,
2013-02-24 22:02:00,29.7,24.3,29.85,North,356,0.0,1.0,80,0.00,,,0.15,VWS V14.01,2013-02-25 03:02:00,
2013-02-24 22:08:00,29.7,24.3,29.85,NNE,32,1.0,1.0,80,0.00,,,0.15,VWS V14.01,2013-02-25 03:08:00,
2013-02-24 22:13:00,29.7,24.3,29.85,NNE,30,0.0,2.0,80,0.00,,,0.15,VWS V14.01,2013-02-25 03:13:00,
2013-02-24 22:18:00,29.7,24.3,29.85,North,4,2.0,4.0,80,0.00,,,0.15,VWS V14.01,2013-02-25 03:18:00,
2013-02-24 22:23:00,29.7,24.3,29.85,NE,43,2.0,2.0,80,0.00,,,0.15,VWS V14.01,2013-02-25 03:23:00,
2013-02-24 22:28:00,29.7,24.3,29.85,ENE,62,2.0,2.0,80,0.00,,,0.15,VWS V14.01,2013-02-25 03:28:00,
2013-02-24 22:33:00,29.6,24.2,29.85,NNE,23,2.0,2.0,80,0.00,,,0.15,VWS V14.01,2013-02-25 03:33:00,
2013-02-24 22:38:00,29.6,24.2,29.85,NNE,29,0.0,1.0,80,0.00,,,0.15,VWS V14.01,2013-02-25 03:38:00,
2013-02-24 22:43:00,29.6,24.2,29.85,ENE,70,0.0,0.0,80,0.00,,,0.15,VWS V14.01,2013-02-25 03:43:00,
2013-02-24 22:48:00,29.6,24.2,29.85,NNE,30,2.0,2.0,80,0.00,,,0.15,VWS V14.01,2013-02-25 03:48:00,
2013-02-24 22:53:00,29.6,24.2,29.86,North,5,1.0,2.0,80,0.00,,,0.15,VWS V14.01,2013-02-25 03:53:00,
2013-02-24 22:58:00,29.6,24.2,29.86,North,11,0.0,1.0,80,0.00,,,0.15,VWS V14.01,2013-02-25 03:58:00,
2013-02-24 23:03:00,29.5,24.1,29.86,North,4,0.0,2.0,80,0.00,,,0.15,VWS V14.01,2013-02-25 04:03:00,
2013-02-24 23:08:00,29.5,24.1,29.86,ENE,71,1.0,2.0,80,0.00,,,0.15,VWS V14.01,2013-02-25 04:08:00,
2013-02-24 23:13:00,29.5,24.1,29.86,North,4,0.0,0.0,80,0.00,,,0.15,VWS V14.01,2013-02-25 04:13:00,
2013-02-24 23:18:00,29.5,24.1,29.86,North,353,0.0,0.0,80,0.00,,,0.15,VWS V14.01,2013-02-25 04:18:00,
2013-02-24 23:23:00,29.5,24.1,29.86,NE,36,1.0,1.0,80,0.00,,,0.15,VWS V14.01,2013-02-25 04:23:00,
2013-02-24 23:28:00,29.4,24.0,29.86,NNE,30,0.0,1.0,80,0.00,,,0.15,VWS V14.01,2013-02-25 04:28:00,
2013-02-24 23:33:00,29.4,24.0,29.86,North,11,0.0,0.0,80,0.00,,,0.15,VWS V14.01,2013-02-25 04:33:00,
2013-02-24 23:38:00,29.4,24.0,29.87,NNE,23,0.0,0.0,80,0.00,,,0.15,VWS V14.01,2013-02-25 04:38:00,
2013-02-24 23:43:00,29.4,24.0,29.87,NNW,341,0.0,0.0,80,0.00,,,0.15,VWS V14.01,2013-02-25 04:43:00,
2013-02-24 23:49:00,29.4,24.0,29.87,NNW,343,0.0,0.0,80,0.00,,,0.15,VWS V14.01,2013-02-25 04:49:00,
2013-02-24 23:54:00,29.4,24.0,29.87,NNW,330,0.0,0.0,80,0.00,,,0.15,VWS V14.01,2013-02-25 04:54:00,
2013-02-24 23:59:00,29.4,24.0,29.87,NE,41,0.0,0.0,80,0.00,,,0.15,VWS V14.01,2013-02-25 04:59:00,